User: anonymous   Login
Location: French Creek State Gamelands
(40.1750°N, 75.7969°W)
Time: 21:56:05
(UTC-04:00)
Language:

ISS - Orbit

View from above orbital plane
View from above orbital plane
View from above satellite
View from above satellite

Ground track
Ground track

The orbit data is extracted from the following two-line orbital elements,

1 25544U 98067A   17179.61063834  .00016717  00000-0  10270-3 0  9025
2 25544  51.6399 341.3900 0004789 330.2205  29.8674 15.54116684 23527
Epoch (UTC): 28 June 2017 14:39:19
Eccentricity: 0.0004789
inclination: 51.6399°
perigee height: 401 km
apogee height: 408 km
right ascension of ascending node: 341.3900°
argument of perigee: 330.2205°
revolutions per day: 15.54116684
mean anomaly at epoch: 29.8674°
orbit number at epoch: 2352

The dashed part of the orbit path shows where the satellite is in the earth's shadow,  

DLR